Check out our new BloomSky Weather System.

Active alerts


No alerts


Thunder radar  blitzortung!


Rain radar more information rain snow radar


Visit our other weather sites:

Template documentation
and downloads

And another site



Weather Underground History page Text

Daily Summary for January 10, 2018 Units:  Metric    English   Both
« Previous Day
Next Day »
Daily Weekly Monthly Yearly Custom
  High: Low: Average:
Temperature: -17.8 °C 10.8 °C 14.4 °C
Dew Point: -17.8 °C 10.2 °C 13.2 °C
Humidity: Humidity % 81 % 92 %
Wind Speed: 0 km/h 0 km/h 3.7 km/h
Wind Gust: 0 km/h - -
Wind:- - SE
Pressure: 0 hPa 1008.4 hPa -
Precipitation: 0 mm    
Historical Graphs
 
 
Tabular Data for January 10, 2018
Time Temperature Dew Point Pressure Wind Wind Speed Wind Gust Humidity Rainfall Rate (Hourly)
-17.8 °C -17.8 °C 0 hPa Calm     Humidity % 0 mm
00:29 11.4 °C 10.5 °C 1017.8 hPa SE 3.2 km/h 8 km/h 94 % 0 mm
00:39 11.4 °C 10.5 °C 1017.8 hPa South 3.2 km/h 8 km/h 94 % 0 mm
00:59 11.3 °C 10.5 °C 1017.2 hPa SE 3.2 km/h 8 km/h 95 % 0 mm
01:34 11.2 °C 10.4 °C 1017.5 hPa South 1.6 km/h 8 km/h 95 % 0 mm
02:32 11.1 °C 10.5 °C 1016.8 hPa SSE 4.8 km/h 16.1 km/h 96 % 0 mm
02:36 11.1 °C 10.5 °C 1016.8 hPa South 3.2 km/h 9.7 km/h 96 % 0 mm
03:22 10.9 °C 10.3 °C 1016.8 hPa SSE 8 km/h 11.3 km/h 96 % 0 mm
03:34 10.9 °C 10.3 °C 1016.5 hPa ESE 3.2 km/h 9.7 km/h 96 % 0 mm
03:45 10.9 °C 10.3 °C 1016.5 hPa ESE 3.2 km/h 8 km/h 96 % 0 mm
04:11 10.8 °C 10.2 °C 1016.1 hPa SSW 4.8 km/h 9.7 km/h 96 % 0 mm
04:24 10.8 °C 10.2 °C 1016.5 hPa SE 1.6 km/h 9.7 km/h 96 % 0 mm
04:31 10.8 °C 10.2 °C 1016.5 hPa SSE 4.8 km/h 9.7 km/h 96 % 0 mm
04:48 10.8 °C 10.3 °C 1016.1 hPa Calm   6.4 km/h 97 % 0 mm
05:21 10.8 °C 10.3 °C 1016.1 hPa Calm   6.4 km/h 97 % 0 mm
05:47 10.8 °C 10.3 °C 1016.1 hPa Calm   1.6 km/h 97 % 0 mm
05:52 10.8 °C 10.3 °C 1016.1 hPa Calm   1.6 km/h 97 % 0 mm
06:21 10.9 °C 10.4 °C 1016.1 hPa Calm   1.6 km/h 97 % 0 mm
07:00 11.1 °C 10.8 °C 1016.1 hPa Calm   1.6 km/h 98 % 0 mm
07:19 11.1 °C 10.8 °C 1016.1 hPa Calm   1.6 km/h 98 % 0 mm
08:17 11.4 °C 11.1 °C 1016.1 hPa Calm   4.8 km/h 98 % 0 mm
08:22 11.5 °C 11.2 °C 1016.5 hPa Calm   4.8 km/h 98 % 0 mm
08:27 11.5 °C 11.2 °C 1016.1 hPa Calm   4.8 km/h 98 % 0 mm
08:28 11.6 °C 11.3 °C 1016.1 hPa Calm   4.8 km/h 98 % 0 mm
08:33 11.6 °C 11.3 °C 1016.5 hPa SE 3.2 km/h 3.2 km/h 98 % 0 mm
08:43 11.6 °C 11.3 °C 1016.5 hPa Calm   4.8 km/h 98 % 0 mm
08:50 11.6 °C 11.3 °C 1016.5 hPa Calm   3.2 km/h 98 % 0 mm
08:56 11.6 °C 11.3 °C 1016.5 hPa Calm   3.2 km/h 98 % 0 mm
09:03 11.7 °C 11.4 °C 1016.5 hPa ESE 1.6 km/h 3.2 km/h 98 % 0 mm
09:13 11.8 °C 11.5 °C 1016.5 hPa Calm   3.2 km/h 98 % 0 mm
09:19 11.8 °C 11.5 °C 1016.5 hPa East 1.6 km/h 4.8 km/h 98 % 0 mm
09:28 11.9 °C 11.6 °C 1016.5 hPa ESE 1.6 km/h 4.8 km/h 98 % 0 mm
09:35 12.1 °C 11.8 °C 1016.5 hPa ESE 1.6 km/h 4.8 km/h 98 % 0 mm
09:42 12.1 °C 11.8 °C 1016.5 hPa Calm   8 km/h 98 % 0 mm
09:47 12.2 °C 11.9 °C 1016.5 hPa ESE 1.6 km/h 8 km/h 98 % 0 mm
09:55 12.2 °C 11.9 °C 1016.5 hPa Calm   4.8 km/h 98 % 0 mm
10:02 12.3 °C 12 °C 1016.5 hPa Calm   4.8 km/h 98 % 0 mm
10:07 12.4 °C 12.1 °C 1016.5 hPa Calm   4.8 km/h 98 % 0 mm
10:13 12.4 °C 12.1 °C 1016.5 hPa Calm   6.4 km/h 98 % 0 mm
10:18 12.6 °C 12.3 °C 1016.5 hPa SE 1.6 km/h 6.4 km/h 98 % 0 mm
10:26 12.7 °C 12.4 °C 1016.5 hPa ESE 1.6 km/h 6.4 km/h 98 % 0 mm
10:31 12.7 °C 12.4 °C 1016.1 hPa ESE 1.6 km/h 6.4 km/h 98 % 0 mm
10:37 12.8 °C 12.5 °C 1016.1 hPa East 3.2 km/h 6.4 km/h 98 % 0 mm
10:48 13.1 °C 12.8 °C 1016.1 hPa Calm   4.8 km/h 98 % 0 mm
10:54 13.2 °C 12.7 °C 1015.8 hPa Calm   4.8 km/h 97 % 0 mm
11:02 13.5 °C 13 °C 1015.8 hPa Calm   4.8 km/h 97 % 0 mm
11:10 13.9 °C 13.4 °C 1015.8 hPa Calm   3.2 km/h 97 % 0 mm
11:15 13.9 °C 13.3 °C 1015.8 hPa SSE 1.6 km/h 3.2 km/h 96 % 0 mm
11:22 14 °C 13.4 °C 1015.5 hPa ESE 1.6 km/h 4.8 km/h 96 % 0 mm
11:30 14.1 °C 13.3 °C 1015.5 hPa Calm   4.8 km/h 95 % 0 mm
11:38 14.4 °C 13.6 °C 1015.1 hPa ESE 1.6 km/h 4.8 km/h 95 % 0 mm
11:45 14.7 °C 13.7 °C 1015.1 hPa Calm   4.8 km/h 94 % 0 mm
11:51 14.8 °C 13.7 °C 1014.8 hPa ESE 1.6 km/h 4.8 km/h 93 % 0 mm
12:04 15.1 °C 13.6 °C 1014.8 hPa SSE 3.2 km/h 8 km/h 91 % 0 mm
12:20 15.3 °C 13.7 °C 1014.4 hPa SE 3.2 km/h 8 km/h 90 % 0 mm
12:26 15.4 °C 13.6 °C 1014.1 hPa SE 3.2 km/h 9.7 km/h 89 % 0 mm
12:34 15.6 °C 13.8 °C 1013.8 hPa ESE 1.6 km/h 9.7 km/h 89 % 0 mm
12:41 15.7 °C 13.9 °C 1013.8 hPa Calm   6.4 km/h 89 % 0 mm
12:48 15.9 °C 13.9 °C 1013.4 hPa SE 1.6 km/h 8 km/h 88 % 0 mm
12:53 16 °C 14 °C 1013.4 hPa SE 1.6 km/h 8 km/h 88 % 0 mm
13:02 16.1 °C 13.9 °C 1013.1 hPa ESE 1.6 km/h 14.5 km/h 87 % 0 mm
13:08 16.2 °C 13.9 °C 1013.1 hPa SE 3.2 km/h 14.5 km/h 86 % 0 mm
13:16 16.3 °C 14 °C 1012.8 hPa ESE 1.6 km/h 9.7 km/h 86 % 0 mm
13:23 16.4 °C 14.1 °C 1012.8 hPa ESE 1.6 km/h 9.7 km/h 86 % 0 mm
13:28 16.5 °C 14.1 °C 1012.8 hPa ESE 4.8 km/h 8 km/h 86 % 0 mm
13:33 16.6 °C 14.2 °C 1012.4 hPa SE 6.4 km/h 8 km/h 86 % 0 mm
13:40 16.7 °C 14.2 °C 1012.1 hPa South 1.6 km/h 8 km/h 85 % 0 mm
13:47 16.8 °C 14.3 °C 1012.1 hPa SE 6.4 km/h 16.1 km/h 85 % 0 mm
13:52 16.9 °C 14.4 °C 1012.1 hPa SSW 4.8 km/h 16.1 km/h 85 % 0 mm
14:01 17.2 °C 14.5 °C 1011.7 hPa SSE 4.8 km/h 11.3 km/h 84 % 0 mm
14:07 17.4 °C 14.5 °C 1011.4 hPa South 6.4 km/h 11.3 km/h 83 % 0 mm
14:26 17.8 °C 14.5 °C 1011.1 hPa South 3.2 km/h 12.9 km/h 81 % 0 mm
14:40 18.1 °C 14.8 °C 1011.1 hPa SE 6.4 km/h 14.5 km/h 81 % 0 mm
14:48 18 °C 14.7 °C 1010.7 hPa SSE 6.4 km/h 14.5 km/h 81 % 0 mm
14:54 17.8 °C 14.5 °C 1011.1 hPa SSE 8 km/h 14.5 km/h 81 % 0 mm
15:01 17.8 °C 14.7 °C 1010.7 hPa ESE 8 km/h 16.1 km/h 82 % 0 mm
15:08 17.8 °C 14.7 °C 1010.7 hPa SSE 6.4 km/h 16.1 km/h 82 % 0 mm
15:15 17.8 °C 14.7 °C 1010.7 hPa SE 12.9 km/h 12.9 km/h 82 % 0 mm
15:20 17.6 °C 14.5 °C 1010.7 hPa ESE 6.4 km/h 16.1 km/h 82 % 0 mm
15:25 17.5 °C 14.6 °C 1010.7 hPa South 4.8 km/h 16.1 km/h 83 % 0 mm
15:32 17.4 °C 14.5 °C 1010.7 hPa SSE 8 km/h 17.7 km/h 83 % 0 mm
15:39 17.4 °C 14.5 °C 1010.4 hPa East 8 km/h 17.7 km/h 83 % 0 mm
15:52 17.3 °C 14.6 °C 1010.4 hPa SE 4.8 km/h 14.5 km/h 84 % 0 mm
16:01 17.1 °C 14.4 °C 1010.4 hPa SE 9.7 km/h 14.5 km/h 84 % 0 mm
16:07 17 °C 14.5 °C 1010.4 hPa SSE 14.5 km/h 14.5 km/h 85 % 0 mm
16:13 16.9 °C 14.4 °C 1010 hPa ESE 14.5 km/h 16.1 km/h 85 % 0 mm
16:25 16.8 °C 14.4 °C 1010 hPa SE 6.4 km/h 17.7 km/h 86 % 0 mm
16:32 16.7 °C 14.5 °C 1009.7 hPa SE 8 km/h 19.3 km/h 87 % 0 mm
16:41 16.7 °C 14.5 °C 1009.7 hPa ESE 8 km/h 19.3 km/h 87 % 0 mm
16:46 16.6 °C 14.4 °C 1009.4 hPa SE 6.4 km/h 19.3 km/h 87 % 0 mm
16:56 16.4 °C 14.4 °C 1009.4 hPa SSE 9.7 km/h 19.3 km/h 88 % 0 mm
17:09 16.2 °C 14.4 °C 1009.4 hPa South 6.4 km/h 24.1 km/h 89 % 0 mm
17:17 16.1 °C 14.3 °C 1009.4 hPa SSE 4.8 km/h 24.1 km/h 89 % 0 mm
17:22 16 °C 14.2 °C 1009.4 hPa SSW 1.6 km/h 14.5 km/h 89 % 0 mm
17:33 15.9 °C 14.3 °C 1009.4 hPa East 4.8 km/h 12.9 km/h 90 % 0 mm
17:47 15.8 °C 14.2 °C 1009.4 hPa SSE 3.2 km/h 12.9 km/h 90 % 0 mm
17:52 15.7 °C 14.1 °C 1009 hPa SE 6.4 km/h 12.9 km/h 90 % 0 mm
18:00 15.6 °C 14.1 °C 1009 hPa SE 9.7 km/h 16.1 km/h 91 % 0 mm
18:06 15.5 °C 14.2 °C 1008.7 hPa SE 4.8 km/h 17.7 km/h 92 % 0 mm
18:15 15.3 °C 14 °C 1008.4 hPa SSE 6.4 km/h 16.1 km/h 92 % 0 mm
18:21 15.3 °C 14 °C 1008.7 hPa SE 6.4 km/h 14.5 km/h 92 % 0 mm
18:32 15.3 °C 14.2 °C 1008.7 hPa ESE 1.6 km/h 16.1 km/h 93 % 0 mm
18:42 15.4 °C 14.3 °C 1008.7 hPa SSE 3.2 km/h 17.7 km/h 93 % 0 mm
18:49 15.3 °C 14.2 °C 1008.7 hPa ESE 12.9 km/h 17.7 km/h 93 % 0 mm
18:55 15.3 °C 14.3 °C 1008.7 hPa SE 11.3 km/h 17.7 km/h 94 % 0 mm
19:02 15.3 °C 14.3 °C 1009 hPa SSE 9.7 km/h 17.7 km/h 94 % 0 mm
19:08 15.3 °C 14.3 °C 1009 hPa SSE 12.9 km/h 12.9 km/h 94 % 0 mm
19:09 15.4 °C 14.4 °C 1009 hPa South 6.4 km/h 12.9 km/h 94 % 0 mm
19:11 15.4 °C 14.4 °C 1009 hPa SE 11.3 km/h 12.9 km/h 94 % 0 mm
19:14 15.4 °C 14.4 °C 1009 hPa SE 4.8 km/h 12.9 km/h 94 % 0 mm
19:24 15.5 °C 14.7 °C 1009 hPa SE 6.4 km/h 16.1 km/h 95 % 0 mm
19:32 15.6 °C 14.8 °C 1009.4 hPa SE 9.7 km/h 17.7 km/h 95 % 0 mm
19:37 15.6 °C 14.8 °C 1009.4 hPa ESE 8 km/h 17.7 km/h 95 % 0 mm
19:44 15.6 °C 14.8 °C 1009 hPa South 1.6 km/h 11.3 km/h 95 % 0 mm
19:49 15.7 °C 14.9 °C 1009 hPa East 11.3 km/h 12.9 km/h 95 % 0 mm
19:54 15.7 °C 14.9 °C 1009.4 hPa ESE 4.8 km/h 12.9 km/h 95 % 0 mm
19:59 15.7 °C 14.9 °C 1009.4 hPa SE 1.6 km/h 17.7 km/h 95 % 0 mm
20:07 15.8 °C 15 °C 1009.7 hPa SSE 4.8 km/h 17.7 km/h 95 % 0 mm
20:14 15.8 °C 15 °C 1009.7 hPa ESE 4.8 km/h 9.7 km/h 95 % 0 mm
20:21 15.8 °C 15 °C 1009.4 hPa SSW 6.4 km/h 8 km/h 95 % 0 mm
20:36 15.8 °C 15 °C 1009.4 hPa SE 1.6 km/h 11.3 km/h 95 % 0 mm
20:42 15.8 °C 15 °C 1009.4 hPa SE 4.8 km/h 8 km/h 95 % 0 mm
20:47 15.8 °C 15 °C 1009 hPa South 1.6 km/h 9.7 km/h 95 % 0 mm
20:56 15.8 °C 15 °C 1009 hPa ESE 3.2 km/h 11.3 km/h 95 % 0 mm
21:13 15.8 °C 15 °C 1009 hPa SE 3.2 km/h 11.3 km/h 95 % 0 mm
21:28 15.9 °C 15.3 °C 1008.7 hPa SE 4.8 km/h 12.9 km/h 96 % 0 mm
21:41 15.9 °C 15.3 °C 1009 hPa South 3.2 km/h 16.1 km/h 96 % 0 mm
21:46 15.9 °C 15.3 °C 1009 hPa ESE 4.8 km/h 16.1 km/h 96 % 0 mm
22:02 15.9 °C 15.1 °C 1009.4 hPa South 3.2 km/h 9.7 km/h 95 % 0 mm
22:11 15.9 °C 15.1 °C 1009.4 hPa SSE 1.6 km/h 9.7 km/h 95 % 0 mm
22:17 15.9 °C 15.1 °C 1009.4 hPa Calm   6.4 km/h 95 % 0 mm
22:23 15.9 °C 15.1 °C 1009.7 hPa Calm   4.8 km/h 95 % 0 mm
22:51 15.8 °C 15 °C 1009.7 hPa Calm   3.2 km/h 95 % 0 mm
23:08 15.8 °C 15 °C 1009.7 hPa ESE 1.6 km/h 3.2 km/h 95 % 0 mm
23:13 15.9 °C 15.1 °C 1009.4 hPa ESE 1.6 km/h 3.2 km/h 95 % 0 mm
23:21 15.8 °C 15 °C 1009 hPa SE 1.6 km/h 4.8 km/h 95 % 0 mm
23:28 15.8 °C 15 °C 1009.4 hPa Calm   4.8 km/h 95 % 0 mm
23:33 15.8 °C 15 °C 1009 hPa Calm   4.8 km/h 95 % 0 mm
23:38 15.8 °C 15 °C 1009 hPa ESE 1.6 km/h 3.2 km/h 95 % 0 mm
23:43 15.8 °C 15 °C 1008.7 hPa Calm   3.2 km/h 95 % 0 mm
23:51 15.8 °C 15 °C 1008.7 hPa SE 1.6 km/h 3.2 km/h 95 % 0 mm
23:57 15.8 °C 15 °C 1008.7 hPa Calm   4.8 km/h 95 % 0 mm
Spring, Texas: Villages of Bridgestone
Compliments of Weather Underground - 2 mb

Script developed by  Jim McMurry - jmcmurry@mwt.net Adapted for the template by  Wim van der Kuil - Leuven-Template.eu

You find our weather info also at:

UK Metoffice

WeatherCloud

Weather Underground

Mid-South Weather Network

AWEKAS

Citizen Weather Observer Program (CWOP)

HAMweather, WeatherForYou, PWS Weather

Equipment we use:

Weather-station
Davis Vantage Vue

Weather-program
Meteohub

Weather-server
Debian 7.9 x86 (Guest)

Provider
DreamHost

Davis Vantage Vue

Meteohub

Debian 7.9 x86 (Guest)

DreamHost